User: anonymous   Login
Location: Caltech
(34.1382°N, 118.1253°W)
Time: 22:12:54
(UTC-07:00)
Language:

ERBS - Orbit

View from above orbital plane
View from above orbital plane
View from above satellite
View from above satellite

Ground track
Ground track

The orbit data is extracted from the following two-line orbital elements,

1 15354U 84108B   17115.86800514 +.00005025 +00000-0 +11965-3 0  9993
2 15354 057.0097 003.5962 0013014 031.5919 328.5915 15.43363885790128
Epoch (UTC): 25 April 2017 20:49:55
Eccentricity: 0.0013014
inclination: 57.0097°
perigee height: 427 km
apogee height: 445 km
right ascension of ascending node: 3.5962°
argument of perigee: 31.5919°
revolutions per day: 15.43363885
mean anomaly at epoch: 328.5915°
orbit number at epoch: 79012

The dashed part of the orbit path shows where the satellite is in the earth's shadow,  

DLR